Crookston, MN

9:27 AM CST on December 14, 2017 (GMT -0600)
Crookston Municipal-Kirkwood

Weather History for KCKN - June, 2013

Change the Weather History Date:

Saturday, June 29, 2013

  Actual Average Record
Temperature  
Mean Temperature 70 °F -  
Max Temperature 80 °F 73 °F 91 °F (2002)
Min Temperature 60 °F 53 °F 46 °F (2000)
Cooling Degree Days 5    
Growing Degree Days 20 (Base 50)    
Moisture  
Dew Point 59 °F    
Average Humidity 70    
Maximum Humidity 100    
Minimum Humidity 42    
Precipitation  
Precipitation 0.00 in - - ()
Sea Level Pressure  
Sea Level Pressure 30.00 in    
Wind  
Wind Speed 9 mph (North)    
Max Wind Speed 16 mph    
Max Gust Speed 21 mph    
Visibility 10 miles    
Events      
Averages and records for this station are not official NWS values.
T = Trace of Precipitation, MM = Missing Value Source: NWS Daily Summary

Daily Weather History Graph

Daily Weather History Graph

Search for Another Location

Airport or City:

Trip Planner

Search our weather history database for the weather conditions in past years. The results will help you decide how hot, cold, wet, or windy it might be!

Date:

Astronomy

Jun. 29, 2013 Rise Set
Actual Time 5:30 AM CDT 9:29 PM CDT
Civil Twilight 4:49 AM CDT 10:09 PM CDT
Nautical Twilight 3:53 AM CDT 11:06 PM CDT
Astronomical Twilight 2:21 AM CDT 12:36 AM CDT
Moon 12:27 AM CDT (6/29) 1:18 PM CDT (6/29)
Length of Visible Light 17h 19m
Length of Day
15h 58m
Waning Gibbous, 55% of the Moon is Illuminated
Jun 29
Waning Gibbous
Jun 29
Last Quarter
Jul 8
New
Jul 15
First Quarter
Jul 22
Full

Hourly Weather History & Observations

Time (CDT) Temp. Heat Index Dew Point Humidity Pressure Visibility Wind Dir Wind Speed Gust Speed Precip Events Conditions
12:14 AM 64.4 °F - 60.8 °F 88% 29.94 in 10.0 mi North 10.4 mph - N/A   Scattered Clouds
12:34 AM 64.4 °F - 60.8 °F 88% 29.94 in 10.0 mi North 10.4 mph - N/A   Scattered Clouds
12:55 AM 64.4 °F - 60.8 °F 88% 29.94 in 10.0 mi North 10.4 mph - N/A   Clear
1:14 AM 64.4 °F - 60.8 °F 88% 29.95 in 10.0 mi North 10.4 mph - N/A   Scattered Clouds
1:34 AM 64.4 °F - 60.8 °F 88% 29.95 in 10.0 mi North 8.1 mph - N/A   Mostly Cloudy
1:55 AM 64.4 °F - 60.8 °F 88% 29.95 in 10.0 mi North 5.8 mph - N/A   Mostly Cloudy
2:14 AM 62.6 °F - 60.8 °F 94% 29.95 in 10.0 mi North 4.6 mph - N/A   Scattered Clouds
2:34 AM 62.6 °F - 60.8 °F 94% 29.95 in 10.0 mi North 6.9 mph - N/A   Clear
2:55 AM 62.6 °F - 60.8 °F 94% 29.95 in 10.0 mi NNE 5.8 mph - N/A   Scattered Clouds
3:14 AM 62.6 °F - 60.8 °F 94% 29.95 in 10.0 mi NNE 5.8 mph - N/A   Scattered Clouds
3:35 AM 62.6 °F - 60.8 °F 94% 29.95 in 10.0 mi NNE 4.6 mph - N/A   Clear
3:55 AM 60.8 °F - 60.8 °F 100% 29.95 in 10.0 mi North 4.6 mph - N/A   Mostly Cloudy
4:14 AM 60.8 °F - 59.0 °F 94% 29.95 in 10.0 mi NNW 5.8 mph - N/A   Scattered Clouds
4:35 AM 60.8 °F - 59.0 °F 94% 29.96 in 10.0 mi North 5.8 mph - N/A   Mostly Cloudy
4:55 AM 60.8 °F - 59.0 °F 94% 29.97 in 10.0 mi North 3.5 mph - N/A   Scattered Clouds
5:14 AM 60.8 °F - 60.8 °F 100% 29.97 in 10.0 mi NNW 4.6 mph - N/A   Mostly Cloudy
5:35 AM 60.8 °F - 59.0 °F 94% 29.98 in 7.0 mi NNW 6.9 mph - N/A   Mostly Cloudy
5:55 AM 60.8 °F - 59.0 °F 94% 29.99 in 10.0 mi NNW 5.8 mph - N/A   Clear
6:14 AM 60.8 °F - 59.0 °F 94% 29.99 in 7.0 mi NNW 6.9 mph - N/A   Mostly Cloudy
6:35 AM 60.8 °F - 60.8 °F 100% 30.00 in 7.0 mi NNW 9.2 mph - N/A   Overcast
6:54 AM 60.8 °F - 60.8 °F 100% 30.01 in 10.0 mi NNW 9.2 mph - N/A   Overcast
7:14 AM 62.6 °F - 60.8 °F 94% 30.01 in 10.0 mi North 10.4 mph - N/A   Overcast
7:35 AM 62.6 °F - 60.8 °F 94% 30.01 in 10.0 mi North 11.5 mph - N/A   Mostly Cloudy
7:54 AM 62.6 °F - 60.8 °F 94% 30.01 in 10.0 mi North 8.1 mph - N/A   Scattered Clouds
8:14 AM 64.4 °F - 60.8 °F 88% 30.02 in 10.0 mi North 10.4 mph - N/A   Mostly Cloudy
8:35 AM 66.2 °F - 62.6 °F 88% 30.02 in 10.0 mi North 9.2 mph - N/A   Mostly Cloudy
8:54 AM 68.0 °F - 60.8 °F 78% 30.02 in 10.0 mi North 11.5 mph - N/A   Clear
9:14 AM 68.0 °F - 60.8 °F 78% 30.02 in 10.0 mi North 10.4 mph - N/A   Clear
9:35 AM 69.8 °F - 60.8 °F 73% 30.02 in 10.0 mi North 10.4 mph - N/A   Scattered Clouds
9:54 AM 69.8 °F - 60.8 °F 73% 30.02 in 10.0 mi North 12.7 mph - N/A   Scattered Clouds
10:14 AM 71.6 °F - 60.8 °F 69% 30.02 in 10.0 mi North 13.8 mph - N/A   Clear
10:35 AM 73.4 °F - 60.8 °F 65% 30.02 in 10.0 mi North 12.7 mph - N/A   Clear
10:54 AM 73.4 °F - 60.8 °F 65% 30.01 in 10.0 mi North 11.5 mph - N/A   Clear
11:14 AM 73.4 °F - 59.0 °F 61% 30.01 in 10.0 mi North 13.8 mph - N/A   Clear
11:35 AM 75.2 °F - 60.8 °F 61% 30.02 in 10.0 mi North 11.5 mph 17.3 mph N/A   Clear
11:54 AM 75.2 °F - 60.8 °F 61% 30.02 in 10.0 mi North 11.5 mph 16.1 mph N/A   Clear
12:14 PM 75.2 °F - 60.8 °F 61% 30.02 in 10.0 mi North 10.4 mph 18.4 mph N/A   Clear
12:35 PM 75.2 °F - 60.8 °F 61% 30.02 in 10.0 mi North 9.2 mph - N/A   Clear
12:54 PM 77.0 °F - 60.8 °F 57% 30.02 in 10.0 mi North 11.5 mph 17.3 mph N/A   Clear
1:14 PM 77.0 °F - 59.0 °F 54% 30.02 in 10.0 mi NNW 9.2 mph - N/A   Clear
1:35 PM 78.8 °F - 60.8 °F 54% 30.02 in 10.0 mi North 12.7 mph 19.6 mph N/A   Clear
1:54 PM 78.8 °F - 60.8 °F 54% 30.01 in 10.0 mi North 11.5 mph - N/A   Clear
2:14 PM 78.8 °F - 60.8 °F 54% 30.01 in 10.0 mi North 11.5 mph 16.1 mph N/A   Scattered Clouds
2:35 PM 78.8 °F - 59.0 °F 51% 30.01 in 10.0 mi North 12.7 mph 16.1 mph N/A   Clear
2:54 PM 78.8 °F - 59.0 °F 51% 30.01 in 10.0 mi North 13.8 mph - N/A   Clear
3:15 PM 80.6 °F 81.1 °F 59.0 °F 48% 30.01 in 10.0 mi North 9.2 mph 18.4 mph N/A   Clear
3:35 PM 80.6 °F 80.8 °F 57.2 °F 45% 30.01 in 10.0 mi NNW 12.7 mph - N/A   Clear
3:54 PM 80.6 °F 80.8 °F 57.2 °F 45% 30.00 in 10.0 mi NNW 12.7 mph 17.3 mph N/A   Clear
4:15 PM 80.6 °F 80.5 °F 55.4 °F 42% 30.00 in 10.0 mi North 11.5 mph 17.3 mph N/A   Clear
4:35 PM 80.6 °F 80.5 °F 55.4 °F 42% 30.01 in 10.0 mi North 10.4 mph 18.4 mph N/A   Scattered Clouds
4:54 PM 80.6 °F 80.5 °F 55.4 °F 42% 30.01 in 10.0 mi North 16.1 mph 20.7 mph N/A   Scattered Clouds
5:15 PM 78.8 °F - 59.0 °F 51% 30.01 in 10.0 mi NE 13.8 mph 19.6 mph N/A   Scattered Clouds
5:35 PM 77.0 °F - 59.0 °F 54% 30.01 in 10.0 mi NE 13.8 mph 19.6 mph N/A   Scattered Clouds
5:54 PM 78.8 °F - 57.2 °F 47% 30.01 in 10.0 mi ENE 11.5 mph - N/A   Scattered Clouds
6:15 PM 78.8 °F - 57.2 °F 47% 30.01 in 10.0 mi NNE 11.5 mph - N/A   Mostly Cloudy
6:35 PM 78.8 °F - 57.2 °F 47% 30.01 in 10.0 mi NNE 10.4 mph - N/A   Scattered Clouds
6:54 PM 78.8 °F - 57.2 °F 47% 30.01 in 10.0 mi NE 8.1 mph - N/A   Clear
7:15 PM 78.8 °F - 55.4 °F 44% 30.01 in 10.0 mi ENE 6.9 mph - N/A   Clear
7:34 PM 78.8 °F - 55.4 °F 44% 30.01 in 10.0 mi ENE 4.6 mph - N/A   Clear
7:54 PM 77.0 °F - 57.2 °F 50% 30.01 in 10.0 mi NE 5.8 mph - N/A   Clear
8:15 PM 75.2 °F - 57.2 °F 53% 30.01 in 10.0 mi ENE 5.8 mph - N/A   Clear
8:34 PM 75.2 °F - 57.2 °F 53% 30.01 in 10.0 mi ENE 4.6 mph - N/A   Clear
8:54 PM 73.4 °F - 59.0 °F 61% 30.02 in 10.0 mi NNE 3.5 mph - N/A   Clear
9:15 PM 71.6 °F - 60.8 °F 69% 30.02 in 10.0 mi NE 4.6 mph - N/A   Clear
9:34 PM 71.6 °F - 60.8 °F 69% 30.03 in 10.0 mi NE 3.5 mph - N/A   Clear
9:54 PM 69.8 °F - 60.8 °F 73% 30.03 in 10.0 mi Calm Calm - N/A   Clear
10:15 PM 69.8 °F - 59.0 °F 68% 30.04 in 10.0 mi ENE 3.5 mph - N/A   Clear
10:34 PM 69.8 °F - 59.0 °F 68% 30.05 in 10.0 mi ENE 3.5 mph - N/A   Clear
10:54 PM 69.8 °F - 59.0 °F 68% 30.05 in 10.0 mi Calm Calm - N/A   Clear
11:14 PM 69.8 °F - 59.0 °F 68% 30.05 in 10.0 mi East 3.5 mph - N/A   Clear
11:34 PM 68.0 °F - 57.2 °F 68% 30.05 in 10.0 mi East 4.6 mph - N/A   Clear
11:48 PM 69.8 °F - 55.4 °F 60% 30.05 in 10.0 mi East 4.6 mph - N/A   Clear